Погода Кировский

Погода Кировский : погода сейчас, прогноз погоды и архив. Всё, что Вы хотите узнать о погоде Кировский!

Хотите узнать прогноз погоды Кировский? Тогда Вам сюда: Погода Кировский

Поиск расширенной информации на нашем сайте:

Другие новости

Новости СМИ2

Главная страница сайта

Новости сайта

03.07.2017

Напоминаем, что на нашем специализированном сайте Метеоцентр.Азия вы можете получить высокодетализированные автоматические прогнозы погоды по пунктам России, СНГ и мира в авиационном формате (включающие направление и скорость ветра, видимость, явления погоды, количество и форму облачности, нижнюю и верхнюю границу облачности).


Погода Кировский - сегодня

Время (UTC), дата Ветер
(°,м/с) 
Видим.   Явления Облачность Т
(°С)
Тd
(°С)
f(%) Тe
(°С)
Pmin
(гПа)
dP
(гПа)
Po
(мм)
O2
(г/м3)
Тmin Tmax R s Состояние
почвы
06 17.06.18 150 (ЮВ) 20000 м    10/8 1000 м средняя 
[Sc|Ac trans]
+17.8 +13.5 76 +24  1006.2  -0.9  746  280           
12 17.06.18 160 (Ю) 20000 м    3/0 средняя, верхняя 
[Ac trans|Ci fib]
+16.7 +13 79 +23  1006.8  746  281           
15 17.06.18 160 (Ю) 20000 м    ясно 
+15.2 +12.3 83 +20  1007  0.2  747  283           
18 17.06.18 170 (Ю) 20000 м    4/0 верхняя 
[Ci fib]
+14.2 +12.2 88 +19  1007.3  0.2  747  284           
00 18.06.18 190 (Ю) 20000 м    9/1 1000 м верхняя 
[Cu hum|Ci sp]
+21.2 +14.3 65 +29  1006.6  -0.6  746  276           
03 18.06.18 210 (ЮЗ) 20000 м    10/8 1000 м средняя, верхняя 
[Cu med, cong|Ac trans|Cc]
+25.1 +15.8 56 +35  1005  -1.4  745  272           
06 18.06.18 190 (Ю) 20000 м    8/8 1000 м средняя 
[Cu Sc|Ac trans]
+25.8 +16.4 56 +37  1002.9  -2.1  744  270           
12 18.06.18 220 (ЮЗ) 20000 м  {ливн. осадки}  8/0 средняя, верхняя 
[Ac trans|Ci fib]
+19.9 +15.5 76 +31  1002.1  0.1  743  276           
15 18.06.18 230 (ЮЗ) 20000 м    10/0 средняя 
[Ac und]
+18 +14.8 82 +28  1002.1  -0.1  743  278           
18 18.06.18 170 (Ю) 20000 м    9/0 средняя 
[Ac trans]
+18.4 +13.3 72 +26  1000.7  -1.3  742  277           
00 19.06.18 200 (Ю) 20000 м    8/0 средняя, верхняя 
[Ac trans|Ci sp]
+22.1 +13.5 58 +29  1001.3  -0.2  743  274           
03 19.06.18 260 (З) 20000 м    10/4 1000 м средняя, верхняя 
[Cu Sc|Ac trans|Ci sp]
+24.2 +14.6 55 +32  1000.9  -0.3  742  272           
06 19.06.18 290 (З) 20000 м    10/8 1000 м кучево-дожд., средняя 
[Cb cap|Ac As]
+18.9 +14.5 76 +28  1001.5  0.4  743  277           
12 19.06.18 200 (Ю) 20000 м  {ливн. осадки}  10/6 1000 м средняя 
[Sc|Ac trans]
+18.3 +15.3 83 +28  1001.9  0.4  743  277           
15 19.06.18 200 (Ю) 20000 м    10/8 1000 м средняя 
[Sc|Ac As]
+17.1 +14.7 86 +27  1001.4  -0.5  743  278           
18 19.06.18 300 (СЗ) 20000 м  в посл. час дождь  10/10 600 м 
[Sc]
+16 +15.2 95 +26  1000.3  -1.2  742  279           
21 19.06.18 290 (З) 10 км  слаб. ливневой дождь  10/8 600 м кучево-дожд., средняя 
[Cb cap|Ac trans]
+15.6 +14.8 95 +26  999.7  -0.5  741  279  +15.5    0.3    влажная 
03 20.06.18 250 (З) 20000 м  {ливн. осадки}  9/8 600 м кучево-дожд., средняя 
[Cb cap|Ac trans]
+20.2 +15 72 +29  997.7  -1.2  740  274           
06 20.06.18 300 (СЗ) 20000 м  {ливн. осадки}  8/8 600 м 
[Cu med, cong]
+23.3 +13.4 54 +30  995.8  -1.8  739  272           
12 20.06.18 210 (ЮЗ) 20000 м  {гроза, ливн. осадки}  10/4 1000 м средняя, верхняя 
[Sc|Ac trans|Ci sp]
+16.8 +14.9 89 +27  997.7  1.5  740  278           
15 20.06.18 240 (ЮЗ) 20000 м    10/8 1000 м средняя 
[Sc|Ac trans]
+16 +15.1 94 +26  997.6  -0.2  740  278           
18 20.06.18 230 (ЮЗ) 20000 м    10/10 600 м 
[Sc]
+15.6 +14.9 96 +26  997.1  -0.4  739  279           
00 21.06.18 340 (С) 20000 м    10/8 600 м средняя, верхняя 
[Cu Sc|Ac trans|Ci sp]
+18.2 +13.5 74 +26  997.6  0.2  740  277           
03 21.06.18 330 (СЗ) 20000 м    9/8 1000 м средняя 
[Sc|Ac trans]
+17.3 +11.6 69 +22  998  0.3  740  278           
06 21.06.18 340 (С) 20000 м    9/8 1000 м кучево-дожд., средняя, верхняя 
[Cb cap|Ac cast|Ci fib]
+20.6 +13.2 63 +27  997  -0.9  739  274           
Время (UTC), дата Ветер
(°,м/с) 
Видим.   Явления Облачность Т
(°С)
Тd
(°С)
f(%) Тe
(°С)
Pmin
(гПа)
dP
(гПа)
Po
(мм)
O2
(г/м3)
Тmin Tmax R s Состояние
почвы

Для получения пояснительной информации подведите курсор к названию столбца.

ПОГОДА Кировский - архив

Всё, что Вы хотите узнать о погоде Кировский - удобно и подробно!

Выберите нужную дату (начиная с 1 января 2015* года) и нажмите кнопку "Найти".
Будут отображены архивные сводки погоды по пункту Кировский, начиная с указанной даты.


Отображать данные в формате CSV (для использования в таблицах Excel)


Внимание! Наш архив погоды предназначен исключительно для личного некоммерческого использования в познавательных целях. Если Вам необходимы официальные справки о состоянии погоды (для производственных, юридических, коммерческих и т.п. целей), обращайтесь в органы Росгидромета.

*Примечание: данная дата относится к архиву по метеостанциям СССР (Россия, СНГ, Балтия).
Архив по метеостанциям Зарубежной Европы и Азии (кроме Китая) хранится 10 дней, по другим регионам земного шара (Китай, Африка, Америка, Австралия, Океания) - 1 день.

Кировский - район местоположения метеостанции


Название, широта, долгота, высота метеостанции:
Кировский 45.1°ш. 133.5°д. 98 м над ур. моря [Российская Федерация]

Дополнительная информация

В oтличие oт бoльшинства пoгoдных сайтoв мы публикуем пoдрoбную метеoинфoрмацию в детальнoм прoфессиoнальнoм фoрмате.

Характеристики температуры и влажнoсти вoздуха измеряются на высoте 2 м в тени вдали oт зданий и деревьев.
Скoрoсть ветра измеряется на высoте 10 м (на урoвне рoста челoвека скoрoсть ветра ниже в 1.5-2 раза). Если метеoстанция нахoдится в гoрoде или в лесу, тo скoрoсть ветра занижена на 2-4 м/с пo сравнению с oткрытым местoм. Скoрoсть ветра над акватoриями крупных рек и oзёр, а также на вершинах хoлмoв на 2-5 м/с выше, чем в oбычных услoвиях.
Атмoсфернoе давление в разных тoчках местнoсти мoжет значительнo oтличаться oт давления на метеoстанции, в зависимoсти oт услoвий рельефа (при пoдъёме на 10 м давление пoнижается примернo на 1 мм рт.ст.).